sat.trackr.live / text

‹ back to catalog

STARLINK-36432

NORAD 67342 · 2026-003J

PAYLOAD ACTIVE UNKNOWN

§ Identity

Operator
Country
US
Launch date
2026-01-09
Launch site
AFETR
Launch vehicle
Mass (kg)
RCS (m²)

Purposes: comms

External: N2YO · Heavens-Above · Gunter

§ Orbital elements

Epoch: 2026-09-19T22:12:09.883296Z

Period
94.27 min
Inclination
43.0008°
Eccentricity
0.0001446
Mean motion
15.27592340 rev/d
Perigee alt
482.0 km
Apogee alt
484.0 km
Semi-major
6,861.1 km
B*
6.0084e-4
RAAN
209.7864°
Arg perigee
260.4883°
Mean anomaly
99.5806°
Rev number
3,853

§ Raw data

STARLINK-364321 67342U 26003J   26262.92511439  .00016314  00000+0  60084-3 0  99902 67342  43.0008 209.7864 0001446 260.4883  99.5806 15.27592340 38535

JSON: /api/v1/satellites/67342 · /tle

For live sub-satellite position, see the globe view (requires WebGL).

§ Visibility from observer

Set your observer location to see the next 7 days of passes ≥ 10°. The values pass through the URL so the page stays shareable.

No JS? Fill the form by hand. The geolocation button needs JavaScript.